Location: Niedergestelen
(46.3129°N, 7.7822°E)
Time: 13:56:20
(UTC+00:00)

CZ-4B R/B - Pass Details

Date: 01 December 2020
Orbit: 389 x 457 km, 97.6° (Epoch: 27 January)

Event Time Altitude Azimuth Distance (km) Brightness Sun altitude
Exits shadow 16:51:39 15° 41° (NE) 1,192 3.0 -11.3°
Maximum altitude 16:53:45 31° 98° (E) 744 2.0 -11.7°
Drops below altitude 10° 16:56:36 10° 163° (SSE) 1,484 4.1 -12.1°
Sets 16:58:45 0° 174° (S) 2,355 5.2 -12.5°
